Showing default

OPS 1427 (OV3-4), 2201

Orbit data source: Space-Track

OPS 1427 (OV3-4), 2201 is a payload satellite owned by USAF OAR (US) in LEO that was launched on Fri, 10 Jun 1966 UTC via an SCOUT B launch vehicle from the Wallops Island (WLPIS). Payload-class satellites include a variety of spacecraft equipped with specific instruments for various scientific and technological missions. These include communications satellites like Starlink; space stations such as the ISS; scientific satellites like the Hubble; Earth observation satellites from companies like Planet Labs, Umbra, and HawkEye 360; GPS; miniature CubeSats for education and research; and military/defense satellites.

Loading next visibility...
Identifier
2201, 1966-052A
Orbit
LEO
Country
Flag of USUS
Related business
Manufacturer
Space General
Mission
Spacecraft
Bus & Motor
OV3, Unknown motor
Mass
78 kg wet, 78 kg dry
Launch date (UTC)
1966-06-10 (60 years ago)
Launch vehicle
SCOUT B
Launch site
Wallops Island (WLPIS)
Object type
Payload
Rocket body
Debris
Shape & HBR
Unknown
Radar Cross Section
Medium (>0.1 m² and <1 m²)

Expand to show TLE details & history
Last TLE update: 1 day ago

TLE from 1 day ago
0 OPS 1427 (OV3-4)
1 02201U 66052A   26163.09387503 -.00000077  00000-0 -34861-4 0  9999
2 02201  40.8842 291.8915 2232215  59.7335 320.5516 10.10103988196804
Epoch: 2026-06-12T02:15Z
TLE epoch observation values (Epoch: 2026-06-12T02:15:10.802Z)
Latitude
-0.00001°
Longitude
-2.33178°
Altitude
1,340.524 km
Speed
7.695 km/s
True Right ascension
19h 27m 33s
True Declination
0° 00' 00"
Sunlit
Object was in full shadow at epoch
Visualization orbit readout
Latitude
Unknown
Longitude
Unknown
Altitude
Unknown
Speed
Unknown
Apparent Right ascension
Unknown
Apparent Declination
Unknown
Sunlit
N/A
Visualization observer readout
Local Sidereal Time
13:58:34
Azimuth
Unknown
Elevation
Unknown
Doppler factor
Unknown
Orbital elements
Apogee altitude
4,681.821 km
Perigee altitude
645.233 km
Semi-major axis
9,041.664 km
Eccentricity
0.22322
Inclination
40.8842°
RAAN
291.8915°
Arg. of periapsis
59.7335°
True anomaly
300.33599°
Mean anomaly
320.5516°
Eccentric anomaly
310.88185°
Mean motion
2.52447 °/min
Orbital period
142.6 mins
BSTAR
-0.000034861
Loading maneuver chart data...
Computing Atmospheric mass density...
Loading historical data...
Loading historical data...
Loading historical data...
Loading historical data...
Loading historical data...
Loading historical data...
Loading historical data...
Other satellites on launch #52 in the year 1966 (1966-06-10 UTC)

Documentation

Showing up to 5 results
|